This demonstration page uses our WeatherBlox Daily Observations layout. Learn more.

38.89511, -77.03637

Hourly Observations for September 29, 2019

Temp ( °F °C ) Dew Point ( °F °C ) Humidity (%) Winds ( mph kmh ) Pressure ( in mb ) Visibility ( mi km ) Precip ( " mm )
12:52 am 00:52 Cloudy 75 23.9 72 22.2 90 90 SW 3 6 30.09 1019 10 16.09344 0 0
1:52 am 01:52 Mostly Cloudy 75 23.9 69 20.6 82 82 SW 5 7 30.09 1019 10 16.09344 0 0
2:52 am 02:52 Mostly Cloudy 74 23.3 70 21.1 88 88 N 5 7 30.09 1019 10 16.09344 0 0
3:52 am 03:52 Mostly Cloudy 74 23.3 68 20 82 82 NNW 9 15 30.09 1019 10 16.09344 0 0
4:52 am 04:52 Mostly Cloudy 74 23.3 68 20 82 82 N 7 11 30.12 1020 10 16.09344 0 0
6:52 am 06:52 Mostly Clear 72 22.2 67 19.4 84 84 NNW 7 11 30.15 1021 10 16.09344 0 0
7:52 am 07:52 Mostly Sunny 75 23.9 68 20 79 79 NNE 8 13 30.18 1022 10 16.09344 0 0
8:52 am 08:52 Mostly Sunny 78 25.6 67 19.4 69 69 NNE 10 17 30.21 1023 10 16.09344 0 0
9:52 am 09:52 Sunny 81 27.2 66 18.9 61 61 NE 14 22 30.21 1023 10 16.09344 0 0
10:52 am 10:52 Sunny 83 28.3 67 19.4 59 59 ENE 9 15 30.21 1023 10 16.09344 0 0
11:52 am 11:52 Partly Cloudy 85 29.4 66 18.9 53 53 ENE 5 7 30.21 1023 10 16.09344 0 0
12:52 pm 12:52 Partly Cloudy 87 30.6 66 18.9 50 50 NE 8 13 30.21 1023 10 16.09344 0 0
1:52 pm 13:52 Partly Cloudy 87 30.6 65 18.3 48 48 VRB 3 6 30.18 1022 10 16.09344 0 0
2:52 pm 14:52 Partly Cloudy 89 31.7 65 18.3 45 45 NE 8 13 30.18 1022 9 14.484096 0 0
3:52 pm 15:52 Mostly Cloudy 86 30 66 18.9 51 51 E 9 15 30.18 1022 10 16.09344 0 0
4:52 pm 16:52 Mostly Cloudy 87 30.6 66 18.9 50 50 E 7 11 30.18 1022 10 16.09344 0 0
5:52 pm 17:52 Mostly Cloudy 84 28.9 66 18.9 55 55 ENE 10 17 30.18 1022 10 16.09344 0 0
6:52 pm 18:52 Mostly Cloudy 82 27.8 66 18.9 58 58 E 12 19 30.18 1022 10 16.09344 0 0
7:52 pm 19:52 Mostly Cloudy 80 26.7 66 18.9 62 62 ENE 12 19 30.18 1022 10 16.09344 0 0
8:52 pm 20:52 Mostly Cloudy 79 26.1 66 18.9 65 65 ENE 9 15 30.21 1023 10 16.09344 0 0
9:52 pm 21:52 Partly Cloudy 78 25.6 65 18.3 64 64 E 8 13 30.24 1024 10 16.09344 0 0
10:52 pm 22:52 Cloudy 76 24.4 65 18.3 69 69 SE 12 19 30.24 1024 10 16.09344 0 0
11:52 pm 23:52 Cloudy 75 23.9 65 18.3 71 71 SE 8 13 30.24 1024 10 16.09344 0 0

Powered by AerisWeather